Altus, OK

5:48 PM CDT on September 30, 2016 (GMT -0500)
Altus Municipal

Weather History for KAXS - March, 2013

Change the Weather History Date:

Saturday, March 9, 2013

  Actual Average (KLTS) Record (KLTS)
Temperature  
Mean Temperature 62 °F -  
Max Temperature 70 °F 59 °F 83 °F (2009)
Min Temperature 50 °F 35 °F 23 °F (1998)
Degree Days  
Heating Degree Days 4    
Growing Degree Days 12 (Base 50)    
Moisture  
Dew Point 47 °F    
Average Humidity 64    
Maximum Humidity 93    
Minimum Humidity 26    
Precipitation  
Precipitation 0.13 in - - ()
Sea Level Pressure  
Sea Level Pressure 29.73 in    
Wind  
Wind Speed 13 mph (SSW)    
Max Wind Speed 25 mph    
Max Gust Speed 36 mph    
Visibility 9 miles    
Events Rain , Thunderstorm    
Averages and records for this station are not official NWS values.
T = Trace of Precipitation, MM = Missing Value Source: NWS Daily Summary

Daily Weather History Graph

Daily Weather History Graph

Search for Another Location

Airport or City:

Trip Planner

Search our weather history database for the weather conditions in past years. The results will help you decide how hot, cold, wet, or windy it might be!

Date:

Astronomy

Mar. 09, 2013 Rise Set
Actual Time 6:55 AM CST 6:40 PM CST
Civil Twilight 6:30 AM CST 7:05 PM CST
Nautical Twilight 6:01 AM CST 7:34 PM CST
Astronomical Twilight 5:32 AM CST 8:04 PM CST
Moon 5:16 AM CST (3/9) 4:47 PM CST (3/9)
Length of Visible Light 12h 34m
Length of Day
11h 44m
Waning Crescent, 5% of the Moon is Illuminated
Mar 9
Waning Crescent
Mar 11
New
Mar 19
First Quarter
Mar 27
Full
Apr 2
Last Quarter

Hourly Weather History & Observations

Time (CST) Temp. Dew Point Humidity Pressure Visibility Wind Dir Wind Speed Gust Speed Precip Events Conditions
12:15 AM 62.2 °F 56.8 °F 82% 29.86 in 10.0 mi SSE 15.0 mph 21.9 mph N/A   Overcast
12:35 AM 62.1 °F 56.8 °F 83% 29.86 in 10.0 mi SE 11.5 mph - N/A   Overcast
12:55 AM 61.9 °F 57.2 °F 85% 29.86 in 10.0 mi SSE 10.4 mph - N/A   Overcast
1:15 AM 61.9 °F 57.2 °F 85% 29.84 in 10.0 mi SE 12.7 mph - N/A   Overcast
1:35 AM 61.9 °F 57.2 °F 85% 29.83 in 10.0 mi SE 13.8 mph - N/A   Overcast
1:55 AM 61.9 °F 57.2 °F 85% 29.83 in 10.0 mi SE 12.7 mph - N/A   Overcast
2:15 AM 61.9 °F 57.2 °F 85% 29.83 in 10.0 mi SE 11.5 mph - N/A   Overcast
2:35 AM 61.9 °F 57.2 °F 85% 29.82 in 10.0 mi SE 10.4 mph - N/A   Overcast
2:55 AM 61.7 °F 57.2 °F 85% 29.82 in 10.0 mi SE 9.2 mph - N/A   Overcast
3:15 AM 61.3 °F 57.2 °F 86% 29.81 in 7.0 mi SE 9.2 mph - N/A   Drizzle
3:35 AM 60.8 °F 57.4 °F 88% 29.81 in 5.0 mi SE 8.1 mph - N/A   Drizzle
3:55 AM 60.4 °F 57.6 °F 90% 29.80 in 4.0 mi SE 9.2 mph - N/A Rain Rain
4:15 AM 60.1 °F 57.6 °F 91% 29.80 in 4.0 mi SE 9.2 mph - N/A   Drizzle
4:35 AM 60.1 °F 57.6 °F 91% 29.79 in 4.0 mi SE 12.7 mph - N/A   Light Drizzle
4:55 AM 59.9 °F 57.6 °F 92% 29.78 in 5.0 mi SE 13.8 mph - 0.01 in Rain Light Rain
5:15 AM 59.9 °F 57.6 °F 92% 29.78 in 5.0 mi SE 17.3 mph - N/A   Overcast
5:35 AM 59.9 °F 57.6 °F 92% 29.77 in 4.0 mi SE 19.6 mph 24.2 mph N/A   Light Drizzle
5:55 AM 59.9 °F 57.6 °F 92% 29.77 in 5.0 mi SE 17.3 mph - N/A   Overcast
6:15 AM 59.9 °F 57.6 °F 92% 29.77 in 5.0 mi SE 19.6 mph - N/A   Overcast
6:35 AM 59.5 °F 57.2 °F 92% 29.76 in 7.0 mi SE 19.6 mph 26.5 mph N/A   Overcast
6:55 AM 59.5 °F 57.2 °F 92% 29.76 in 7.0 mi SE 18.4 mph 25.3 mph N/A   Overcast
7:15 AM 59.4 °F 57.2 °F 93% 29.75 in 7.0 mi SSE 19.6 mph - N/A   Overcast
7:35 AM 59.4 °F 57.0 °F 92% 29.75 in 7.0 mi SE 20.7 mph 26.5 mph N/A   Overcast
7:55 AM 59.5 °F 57.2 °F 92% 29.75 in 7.0 mi SSE 19.6 mph 24.2 mph N/A   Overcast
8:15 AM 59.9 °F 57.2 °F 91% 29.75 in 7.0 mi SE 17.3 mph - N/A   Overcast
8:35 AM 60.3 °F 57.2 °F 90% 29.75 in 7.0 mi SE 18.4 mph - N/A   Overcast
8:55 AM 60.8 °F 57.6 °F 89% 29.75 in 10.0 mi SSE 17.3 mph - N/A   Mostly Cloudy
9:15 AM 61.3 °F 58.1 °F 89% 29.75 in 10.0 mi SSE 17.3 mph 20.7 mph N/A   Mostly Cloudy
9:35 AM 62.4 °F 58.5 °F 87% 29.74 in 10.0 mi SSE 15.0 mph 21.9 mph N/A   Mostly Cloudy
9:55 AM 64.0 °F 59.0 °F 84% 29.74 in 10.0 mi South 13.8 mph 23.0 mph N/A   Mostly Cloudy
10:15 AM 65.7 °F 59.9 °F 82% 29.72 in 10.0 mi South 21.9 mph 26.5 mph N/A   Overcast
10:35 AM 67.1 °F 59.9 °F 78% 29.71 in 10.0 mi South 21.9 mph 27.6 mph N/A   Mostly Cloudy
10:55 AM 68.0 °F 59.5 °F 74% 29.70 in 10.0 mi SSW 17.3 mph 21.9 mph N/A   Scattered Clouds
11:15 AM 58.5 °F 53.8 °F 84% 29.74 in 2.5 mi West 10.4 mph 29.9 mph 0.11 in Rain , Thunderstorm Heavy Thunderstorms and Rain
11:35 AM 58.3 °F 53.4 °F 84% 29.74 in 10.0 mi Calm Calm - 0.12 in   Scattered Clouds
11:55 AM 59.7 °F 54.3 °F 82% 29.73 in 10.0 mi Calm Calm - 0.12 in   Clear
12:15 PM 61.0 °F 55.9 °F 83% 29.73 in 10.0 mi Calm Calm - N/A   Scattered Clouds
12:35 PM 64.6 °F 50.5 °F 60% 29.72 in 10.0 mi West 9.2 mph - N/A   Scattered Clouds
12:55 PM 63.5 °F 50.0 °F 61% 29.70 in 10.0 mi West 9.2 mph - N/A   Clear
1:15 PM 64.6 °F 49.5 °F 58% 29.69 in 10.0 mi West 8.1 mph - N/A   Clear
1:35 PM 67.1 °F 48.7 °F 52% 29.68 in 10.0 mi WSW 12.7 mph - N/A   Clear
1:55 PM 68.9 °F 42.6 °F 39% 29.66 in 10.0 mi West 24.2 mph 29.9 mph N/A   Clear
2:15 PM 69.4 °F 40.5 °F 35% 29.65 in 10.0 mi West 25.3 mph 28.8 mph N/A   Clear
2:35 PM 68.0 °F 40.1 °F 36% 29.65 in 10.0 mi West 19.6 mph 26.5 mph N/A   Clear
2:55 PM 69.3 °F 39.7 °F 34% 29.66 in 10.0 mi WSW 18.4 mph 25.3 mph N/A   Clear
3:15 PM 70.7 °F 36.1 °F 28% 29.66 in 10.0 mi WSW 21.9 mph 35.7 mph N/A   Clear
3:35 PM 68.9 °F 36.3 °F 30% 29.66 in 10.0 mi West 20.7 mph 27.6 mph N/A   Clear
3:55 PM 68.9 °F 34.2 °F 28% 29.66 in 10.0 mi WSW 19.6 mph 28.8 mph N/A   Clear
4:15 PM 67.6 °F 34.0 °F 29% 29.66 in 10.0 mi West 19.6 mph 26.5 mph N/A   Clear
4:35 PM 69.1 °F 34.7 °F 28% 29.66 in 10.0 mi WSW 23.0 mph 29.9 mph N/A   Clear
4:55 PM 67.6 °F 33.4 °F 28% 29.66 in 10.0 mi West 16.1 mph 31.1 mph N/A   Clear
5:15 PM 64.9 °F 35.4 °F 33% 29.66 in 10.0 mi West 12.7 mph - N/A   Clear
5:35 PM 65.1 °F 38.5 °F 37% 29.66 in 10.0 mi West 11.5 mph - N/A   Clear
5:55 PM 64.4 °F 34.9 °F 33% 29.66 in 10.0 mi West 13.8 mph - N/A   Clear
6:15 PM 65.3 °F 29.1 °F 26% 29.66 in 10.0 mi West 20.7 mph 27.6 mph N/A   Clear
6:35 PM 63.9 °F 31.5 °F 30% 29.66 in 10.0 mi West 9.2 mph - N/A   Clear
6:55 PM 58.6 °F 35.4 °F 42% 29.66 in 10.0 mi WNW 8.1 mph - N/A   Scattered Clouds
7:15 PM 57.9 °F 33.6 °F 40% 29.67 in 10.0 mi West 5.8 mph - N/A   Mostly Cloudy
7:35 PM 58.5 °F 32.4 °F 37% 29.68 in 10.0 mi West 6.9 mph - N/A   Mostly Cloudy
7:55 PM 57.2 °F 33.3 °F 40% 29.69 in 10.0 mi WSW 5.8 mph - N/A   Scattered Clouds
8:15 PM 57.0 °F 31.6 °F 38% 29.70 in 10.0 mi West 8.1 mph - N/A   Scattered Clouds
8:35 PM 55.0 °F 33.3 °F 44% 29.70 in 10.0 mi West 5.8 mph - N/A   Clear
8:55 PM 53.8 °F 34.0 °F 47% 29.68 in 10.0 mi NW 5.8 mph - N/A   Clear
9:15 PM 53.1 °F 34.2 °F 49% 29.69 in 10.0 mi West 6.9 mph - N/A   Scattered Clouds
9:35 PM 54.3 °F 32.7 °F 44% 29.72 in 10.0 mi SW 3.5 mph - N/A   Scattered Clouds
9:55 PM 53.8 °F 34.3 °F 48% 29.69 in 10.0 mi Calm Calm - N/A   Scattered Clouds
10:15 PM 53.2 °F 36.1 °F 52% 29.74 in 10.0 mi SSW 10.4 mph - N/A   Clear
10:35 PM 56.7 °F 28.6 °F 34% 29.68 in 10.0 mi West 3.5 mph - N/A   Clear
10:55 PM 54.5 °F 33.1 °F 44% 29.76 in 10.0 mi SW 8.1 mph - N/A   Clear
11:15 PM 55.6 °F 30.7 °F 39% 29.74 in 10.0 mi West 5.8 mph - N/A   Clear
11:35 PM 54.7 °F 34.0 °F 46% 29.76 in 10.0 mi NNW 21.9 mph 29.9 mph N/A   Clear
11:55 PM 50.2 °F 36.5 °F 59% 29.77 in 10.0 mi NNW 25.3 mph 33.4 mph N/A   Clear